Time,TemperatureF,DewpointF,PressureIn,WindDirection,WindDirectionDegrees,WindSpeedMPH,WindSpeedGustMPH,Humidity,HourlyPrecipIn,Conditions,Clouds,dailyrainin,SoftwareType,DateUTC
2014-02-15 00:08:00,74.5,71.6,30.12,East,90,3.1,7.6,90,0.00,,,0.00,Graphweather,2014-02-15 04:08:00,
2014-02-15 00:13:00,74.7,71.6,30.12,SSE,157,4.0,6.0,91,0.00,,,0.00,Graphweather,2014-02-15 04:13:00,
2014-02-15 00:18:00,74.7,71.6,30.12,ENE,67,3.8,5.8,91,0.00,,,0.00,Graphweather,2014-02-15 04:18:00,
2014-02-15 00:28:00,74.7,71.6,30.12,East,90,4.5,6.3,90,0.00,,,0.00,Graphweather,2014-02-15 04:28:00,
2014-02-15 00:33:00,74.7,71.6,30.12,East,90,3.8,8.1,90,0.00,,,0.00,Graphweather,2014-02-15 04:33:00,
2014-02-15 00:38:00,74.7,71.6,30.12,ESE,112,4.5,7.4,89,0.00,,,0.00,Graphweather,2014-02-15 04:38:00,
2014-02-15 00:48:00,74.7,71.6,30.12,ESE,112,4.7,7.6,89,0.00,,,0.00,Graphweather,2014-02-15 04:48:00,
2014-02-15 00:53:00,74.7,71.6,30.12,East,90,4.7,7.8,88,0.00,,,0.00,Graphweather,2014-02-15 04:53:00,
2014-02-15 00:58:00,74.7,71.6,30.12,East,90,3.4,7.8,88,0.00,,,0.00,Graphweather,2014-02-15 04:58:00,
2014-02-15 01:03:00,74.5,71.6,30.09,ESE,112,3.4,6.9,89,0.00,,,0.00,Graphweather,2014-02-15 05:03:00,
2014-02-15 01:08:00,74.5,71.6,30.09,NNE,22,3.1,6.5,89,0.00,,,0.00,Graphweather,2014-02-15 05:08:00,
2014-02-15 01:13:00,74.3,71.6,30.09,East,90,3.6,6.5,90,0.00,,,0.00,Graphweather,2014-02-15 05:13:00,
2014-02-15 01:18:00,74.3,71.6,30.09,ESE,112,2.5,5.6,91,0.00,,,0.00,Graphweather,2014-02-15 05:18:00,
2014-02-15 01:23:00,74.3,71.6,30.09,NE,45,3.6,4.7,90,0.00,,,0.00,Graphweather,2014-02-15 05:23:00,
2014-02-15 01:28:00,74.5,71.6,30.09,East,90,3.8,5.6,89,0.00,,,0.00,Graphweather,2014-02-15 05:28:00,
2014-02-15 01:33:00,74.5,71.6,30.09,East,90,3.4,6.5,89,0.00,,,0.00,Graphweather,2014-02-15 05:33:00,
2014-02-15 01:38:00,74.5,71.6,30.09,ENE,67,3.4,6.0,90,0.00,,,0.00,Graphweather,2014-02-15 05:38:00,
2014-02-15 01:48:00,74.7,71.6,30.06,ESE,112,2.9,5.6,90,0.00,,,0.00,Graphweather,2014-02-15 05:48:00,
2014-02-15 01:53:00,74.7,71.6,30.06,NE,45,4.7,6.3,90,0.00,,,0.00,Graphweather,2014-02-15 05:53:00,
2014-02-15 01:58:00,74.7,71.6,30.06,SSE,157,3.6,4.3,89,0.00,,,0.00,Graphweather,2014-02-15 05:58:00,
2014-02-15 02:08:00,74.5,71.6,30.09,ENE,67,3.1,6.3,88,0.00,,,0.00,Graphweather,2014-02-15 06:08:00,
2014-02-15 02:13:00,74.7,71.6,30.09,East,90,4.0,6.3,89,0.00,,,0.00,Graphweather,2014-02-15 06:13:00,
2014-02-15 02:23:00,74.7,71.6,30.09,East,90,3.6,7.4,89,0.00,,,0.00,Graphweather,2014-02-15 06:23:00,
2014-02-15 02:28:00,74.7,71.6,30.09,East,90,4.0,6.0,90,0.00,,,0.00,Graphweather,2014-02-15 06:28:00,
2014-02-15 02:33:00,74.7,71.6,30.09,ESE,112,4.0,7.8,90,0.00,,,0.00,Graphweather,2014-02-15 06:33:00,
2014-02-15 02:38:00,74.5,71.6,30.09,East,90,3.4,5.6,90,0.00,,,0.00,Graphweather,2014-02-15 06:38:00,
2014-02-15 02:48:00,74.7,71.6,30.09,NE,45,4.7,5.6,91,0.00,,,0.00,Graphweather,2014-02-15 06:48:00,
2014-02-15 02:53:00,74.3,71.6,30.09,NNE,22,2.2,7.4,90,0.00,,,0.00,Graphweather,2014-02-15 06:53:00,
2014-02-15 02:58:00,74.3,71.6,30.09,ESE,112,3.8,5.8,90,0.00,,,0.00,Graphweather,2014-02-15 06:58:00,
2014-02-15 03:08:00,74.3,71.6,30.06,East,90,3.1,6.7,90,0.00,,,0.00,Graphweather,2014-02-15 07:08:00,
2014-02-15 03:13:00,74.1,71.6,30.06,NE,45,2.9,6.5,89,0.00,,,0.00,Graphweather,2014-02-15 07:13:00,
2014-02-15 03:18:00,74.1,71.6,30.06,SSE,157,3.6,4.9,89,0.00,,,0.00,Graphweather,2014-02-15 07:18:00,
2014-02-15 03:28:00,74.1,71.6,30.06,ESE,112,3.6,6.3,90,0.00,,,0.00,Graphweather,2014-02-15 07:28:00,
2014-02-15 03:33:00,74.3,71.6,30.06,ESE,112,2.2,6.0,90,0.00,,,0.00,Graphweather,2014-02-15 07:33:00,
2014-02-15 03:38:00,74.5,71.6,30.06,ENE,67,3.1,5.8,90,0.00,,,0.00,Graphweather,2014-02-15 07:38:00,
2014-02-15 03:48:00,74.5,71.6,30.06,East,90,3.4,4.3,89,0.00,,,0.00,Graphweather,2014-02-15 07:48:00,
2014-02-15 03:53:00,74.5,71.6,30.06,East,90,3.4,7.4,90,0.00,,,0.00,Graphweather,2014-02-15 07:53:00,
2014-02-15 03:58:00,74.5,71.6,30.06,NE,45,3.1,5.6,89,0.00,,,0.00,Graphweather,2014-02-15 07:58:00,
2014-02-15 04:03:00,74.3,71.6,30.06,SE,135,2.9,6.5,89,0.00,,,0.00,Graphweather,2014-02-15 08:03:00,
2014-02-15 04:13:00,73.9,69.8,30.06,ENE,67,3.4,5.4,86,0.00,,,0.00,Graphweather,2014-02-15 08:13:00,
2014-02-15 04:18:00,73.9,69.8,30.06,SSE,157,2.5,5.4,88,0.00,,,0.00,Graphweather,2014-02-15 08:18:00,
2014-02-15 04:23:00,73.9,69.8,30.06,East,90,2.5,6.3,88,0.00,,,0.00,Graphweather,2014-02-15 08:23:00,
2014-02-15 04:33:00,73.9,71.6,30.06,SE,135,2.5,8.7,89,0.00,,,0.00,Graphweather,2014-02-15 08:33:00,
2014-02-15 04:38:00,74.1,71.6,30.06,East,90,2.5,5.4,90,0.00,,,0.00,Graphweather,2014-02-15 08:38:00,
2014-02-15 04:43:00,74.1,71.6,30.06,NE,45,3.8,5.8,91,0.00,,,0.00,Graphweather,2014-02-15 08:43:00,
2014-02-15 04:53:00,73.9,69.8,30.06,SE,135,2.2,3.8,87,0.00,,,0.00,Graphweather,2014-02-15 08:53:00,
2014-02-15 04:58:00,73.9,69.8,30.06,SE,135,3.1,4.9,86,0.00,,,0.00,Graphweather,2014-02-15 08:58:00,
2014-02-15 05:03:00,73.9,69.8,30.06,ESE,112,2.9,5.8,88,0.00,,,0.00,Graphweather,2014-02-15 09:03:00,
2014-02-15 05:13:00,73.9,71.6,30.06,SE,135,3.4,5.6,90,0.00,,,0.00,Graphweather,2014-02-15 09:13:00,
2014-02-15 05:18:00,74.1,71.6,30.06,ESE,112,4.0,5.6,91,0.00,,,0.00,Graphweather,2014-02-15 09:18:00,
2014-02-15 05:23:00,74.1,71.6,30.06,SE,135,4.3,7.4,91,0.00,,,0.00,Graphweather,2014-02-15 09:23:00,
2014-02-15 05:33:00,73.8,71.6,30.09,East,90,2.7,5.4,89,0.00,,,0.00,Graphweather,2014-02-15 09:33:00,
2014-02-15 05:38:00,73.6,69.8,30.09,SE,135,2.5,4.3,87,0.00,,,0.00,Graphweather,2014-02-15 09:38:00,
2014-02-15 05:43:00,73.6,69.8,30.09,East,90,2.0,5.8,88,0.00,,,0.00,Graphweather,2014-02-15 09:43:00,
2014-02-15 05:48:00,73.6,69.8,30.09,NNE,22,2.7,7.2,90,0.00,,,0.00,Graphweather,2014-02-15 09:48:00,
2014-02-15 05:58:00,73.6,71.6,30.09,ESE,112,3.4,9.4,91,0.00,,,0.00,Graphweather,2014-02-15 09:58:00,
2014-02-15 06:08:00,73.8,71.6,30.09,ESE,112,3.4,4.9,93,0.00,,,0.00,Graphweather,2014-02-15 10:08:00,
2014-02-15 06:13:00,73.8,71.6,30.09,East,90,2.5,5.4,92,0.00,,,0.00,Graphweather,2014-02-15 10:13:00,
2014-02-15 06:18:00,73.8,71.6,30.09,SE,135,4.0,7.4,91,0.00,,,0.00,Graphweather,2014-02-15 10:18:00,
2014-02-15 06:27:00,73.8,71.6,30.09,NNE,22,2.0,3.8,91,0.00,,,0.00,Graphweather,2014-02-15 10:27:00,
2014-02-15 06:33:00,73.8,69.8,30.09,SSE,157,3.6,5.8,88,0.00,,,0.00,Graphweather,2014-02-15 10:33:00,
2014-02-15 06:38:00,73.8,71.6,30.09,ESE,112,2.9,5.8,89,0.00,,,0.00,Graphweather,2014-02-15 10:38:00,
2014-02-15 06:42:00,73.9,71.6,30.09,NNE,22,2.7,3.8,89,0.00,,,0.00,Graphweather,2014-02-15 10:42:00,
2014-02-15 06:47:00,73.9,69.8,30.09,SE,135,2.7,5.4,87,0.00,,,0.00,Graphweather,2014-02-15 10:47:00,
2014-02-15 06:53:00,74.3,71.6,30.09,East,90,2.2,4.0,88,0.00,,,0.00,Graphweather,2014-02-15 10:53:00,
2014-02-15 06:58:00,74.3,71.6,30.09,NE,45,2.7,4.7,88,0.00,,,0.00,Graphweather,2014-02-15 10:58:00,
2014-02-15 07:02:00,74.7,71.6,30.09,ESE,112,2.9,4.3,88,0.00,,,0.00,Graphweather,2014-02-15 11:02:00,
2014-02-15 07:07:00,74.8,71.6,30.09,East,90,3.4,6.0,88,0.00,,,0.00,Graphweather,2014-02-15 11:07:00,
2014-02-15 07:13:00,75.0,71.6,30.09,ESE,112,2.7,4.9,89,0.00,,,0.00,Graphweather,2014-02-15 11:13:00,
2014-02-15 07:18:00,75.2,71.6,30.09,ESE,112,3.1,3.8,88,0.00,,,0.00,Graphweather,2014-02-15 11:18:00,
2014-02-15 07:27:00,75.9,71.6,30.09,ESE,112,2.9,4.3,86,0.00,,,0.00,Graphweather,2014-02-15 11:27:00,
2014-02-15 07:33:00,76.5,71.6,30.09,East,90,2.7,7.2,85,0.00,,,0.00,Graphweather,2014-02-15 11:33:00,
2014-02-15 07:38:00,77.0,73.4,30.09,ENE,67,2.9,3.8,85,0.00,,,0.00,Graphweather,2014-02-15 11:38:00,
2014-02-15 07:42:00,78.1,73.4,30.09,East,90,3.8,6.0,84,0.00,,,0.00,Graphweather,2014-02-15 11:42:00,
2014-02-15 07:47:00,78.3,71.6,30.12,SSE,157,2.9,5.6,81,0.00,,,0.00,Graphweather,2014-02-15 11:47:00,
2014-02-15 07:53:00,79.2,73.4,30.12,East,90,3.4,6.3,80,0.00,,,0.00,Graphweather,2014-02-15 11:53:00,
2014-02-15 07:58:00,81.0,73.4,30.12,ESE,112,2.7,4.3,78,0.00,,,0.00,Graphweather,2014-02-15 11:58:00,
2014-02-15 08:03:00,79.2,71.6,30.12,SE,135,3.4,6.3,78,0.00,,,0.00,Graphweather,2014-02-15 12:03:00,
2014-02-15 08:07:00,78.3,71.6,30.12,NE,45,3.8,4.9,80,0.00,,,0.00,Graphweather,2014-02-15 12:07:00,
2014-02-15 08:13:00,81.3,75.2,30.12,SE,135,2.5,9.2,80,0.00,,,0.00,Graphweather,2014-02-15 12:13:00,
2014-02-15 08:18:00,80.2,71.6,30.12,ESE,112,3.1,5.8,76,0.00,,,0.00,Graphweather,2014-02-15 12:18:00,
2014-02-15 08:27:00,82.8,75.2,30.12,ENE,67,3.8,5.8,74,0.00,,,0.00,Graphweather,2014-02-15 12:27:00,
2014-02-15 08:33:00,83.3,75.2,30.15,ESE,112,2.7,6.3,74,0.00,,,0.00,Graphweather,2014-02-15 12:33:00,
2014-02-15 08:38:00,83.7,75.2,30.15,SSE,157,3.1,5.8,74,0.00,,,0.00,Graphweather,2014-02-15 12:38:00,
2014-02-15 08:42:00,83.8,75.2,30.15,East,90,2.9,5.6,73,0.00,,,0.00,Graphweather,2014-02-15 12:42:00,
2014-02-15 08:48:00,83.5,73.4,30.15,ESE,112,3.6,6.5,70,0.00,,,0.00,Graphweather,2014-02-15 12:48:00,
2014-02-15 08:53:00,84.2,73.4,30.15,East,90,3.1,5.4,68,0.00,,,0.00,Graphweather,2014-02-15 12:53:00,
2014-02-15 08:58:00,84.9,73.4,30.15,SSE,157,3.4,7.2,68,0.00,,,0.00,Graphweather,2014-02-15 12:58:00,
2014-02-15 09:02:00,84.9,73.4,30.15,SSE,157,3.4,7.2,68,0.00,,,0.00,Graphweather,2014-02-15 13:02:00,
2014-02-15 09:08:00,82.9,73.4,30.15,ESE,112,3.4,5.4,71,0.00,,,0.00,Graphweather,2014-02-15 13:08:00,
2014-02-15 09:13:00,82.4,73.4,30.15,East,90,3.4,5.6,71,0.00,,,0.00,Graphweather,2014-02-15 13:13:00,
2014-02-15 09:52:00,86.5,73.4,30.15,East,90,3.8,6.0,66,0.00,,,0.00,Graphweather,2014-02-15 13:52:00,
2014-02-15 09:58:00,87.6,75.2,30.15,East,90,2.9,6.5,67,0.00,,,0.00,Graphweather,2014-02-15 13:58:00,
2014-02-15 10:03:00,87.6,75.2,30.15,ESE,112,3.8,6.5,67,0.00,,,0.00,Graphweather,2014-02-15 14:03:00,
2014-02-15 10:08:00,87.6,75.2,30.15,ESE,112,3.8,6.3,67,0.00,,,0.00,Graphweather,2014-02-15 14:08:00,
2014-02-15 10:13:00,87.8,75.2,30.15,East,90,3.6,5.4,65,0.00,,,0.00,Graphweather,2014-02-15 14:13:00,
2014-02-15 10:18:00,88.2,75.2,30.15,ENE,67,3.4,6.9,64,0.00,,,0.00,Graphweather,2014-02-15 14:18:00,
2014-02-15 10:23:00,88.3,75.2,30.15,SE,135,2.9,4.7,65,0.00,,,0.00,Graphweather,2014-02-15 14:23:00,
2014-02-15 10:28:00,88.2,75.2,30.15,ESE,112,3.8,8.5,63,0.00,,,0.00,Graphweather,2014-02-15 14:28:00,
2014-02-15 10:33:00,88.2,73.4,30.15,ESE,112,3.6,8.7,61,0.00,,,0.00,Graphweather,2014-02-15 14:33:00,
2014-02-15 10:38:00,88.9,75.2,30.15,SW,225,2.7,6.9,62,0.00,,,0.00,Graphweather,2014-02-15 14:38:00,
2014-02-15 10:43:00,89.6,73.4,30.15,NE,45,3.1,5.8,59,0.00,,,0.00,Graphweather,2014-02-15 14:43:00,
2014-02-15 10:48:00,90.3,75.2,30.12,ESE,112,2.2,5.6,59,0.00,,,0.00,Graphweather,2014-02-15 14:48:00,
2014-02-15 10:53:00,90.1,73.4,30.12,East,90,3.1,5.6,57,0.00,,,0.00,Graphweather,2014-02-15 14:53:00,
2014-02-15 10:58:00,90.3,73.4,30.12,SE,135,2.5,4.3,56,0.00,,,0.00,Graphweather,2014-02-15 14:58:00,
2014-02-15 11:03:00,90.9,73.4,30.12,ESE,112,2.9,7.8,54,0.00,,,0.00,Graphweather,2014-02-15 15:03:00,
2014-02-15 11:08:00,91.2,73.4,30.12,ESE,112,2.7,4.5,54,0.00,,,0.00,Graphweather,2014-02-15 15:08:00,
2014-02-15 11:13:00,91.6,73.4,30.12,ESE,112,2.5,4.0,53,0.00,,,0.00,Graphweather,2014-02-15 15:13:00,
2014-02-15 11:18:00,91.0,73.4,30.15,ENE,67,3.4,5.4,54,0.00,,,0.00,Graphweather,2014-02-15 15:18:00,
2014-02-15 11:23:00,91.6,73.4,30.15,ENE,67,2.5,6.7,55,0.00,,,0.00,Graphweather,2014-02-15 15:23:00,
2014-02-15 11:28:00,91.6,73.4,30.15,NE,45,2.2,6.0,54,0.00,,,0.00,Graphweather,2014-02-15 15:28:00,
2014-02-15 11:33:00,91.9,71.6,30.12,ESE,112,3.4,4.5,52,0.00,,,0.00,Graphweather,2014-02-15 15:33:00,
2014-02-15 11:38:00,91.8,71.6,30.12,East,90,2.5,6.3,52,0.00,,,0.00,Graphweather,2014-02-15 15:38:00,
2014-02-15 11:43:00,91.9,73.4,30.12,NNE,22,2.7,5.8,53,0.00,,,0.00,Graphweather,2014-02-15 15:43:00,
2014-02-15 11:48:00,91.8,71.6,30.15,East,90,3.8,7.2,51,0.00,,,0.00,Graphweather,2014-02-15 15:48:00,
2014-02-15 11:58:00,92.3,73.4,30.15,East,90,3.1,4.7,52,0.00,,,0.00,Graphweather,2014-02-15 15:58:00,
2014-02-15 12:02:00,92.3,73.4,30.15,East,90,3.1,4.7,52,0.00,,,0.00,Graphweather,2014-02-15 16:02:00,
2014-02-15 12:07:00,91.9,73.4,30.15,East,90,2.9,4.7,53,0.00,,,0.00,Graphweather,2014-02-15 16:07:00,
2014-02-15 12:12:00,92.3,73.4,30.15,ENE,67,2.7,5.4,53,0.00,,,0.00,Graphweather,2014-02-15 16:12:00,
2014-02-15 12:18:00,91.8,73.4,30.15,SE,135,4.7,7.8,53,0.00,,,0.00,Graphweather,2014-02-15 16:18:00,
2014-02-15 12:22:00,91.9,73.4,30.15,East,90,2.7,4.0,54,0.00,,,0.00,Graphweather,2014-02-15 16:22:00,
2014-02-15 12:27:00,92.3,73.4,30.15,ESE,112,2.5,6.5,54,0.00,,,0.00,Graphweather,2014-02-15 16:27:00,
2014-02-15 12:33:00,92.1,73.4,30.18,SSE,157,2.9,5.6,54,0.00,,,0.00,Graphweather,2014-02-15 16:33:00,
2014-02-15 12:38:00,91.2,73.4,30.18,ESE,112,4.3,7.4,54,0.00,,,0.00,Graphweather,2014-02-15 16:38:00,
2014-02-15 12:42:00,92.3,73.4,30.18,ESE,112,2.7,5.8,54,0.00,,,0.00,Graphweather,2014-02-15 16:42:00,
2014-02-15 13:25:00,90.1,75.2,30.12,ESE,112,3.4,6.9,60,0.00,,,0.00,Graphweather,2014-02-15 17:25:00,
2014-02-15 13:28:00,90.9,75.2,30.12,ESE,112,2.9,3.6,60,0.00,,,0.00,Graphweather,2014-02-15 17:28:00,
2014-02-15 14:07:00,84.9,73.4,30.12,NNW,337,3.8,8.7,67,0.00,,,0.00,Graphweather,2014-02-15 18:07:00,
2014-02-15 14:08:00,88.2,73.4,30.12,East,90,4.0,5.8,61,0.00,,,0.00,Graphweather,2014-02-15 18:08:00,
2014-02-15 14:13:00,87.1,71.6,30.12,East,90,3.6,8.5,60,0.00,,,0.00,Graphweather,2014-02-15 18:13:00,
2014-02-15 15:04:00,84.2,73.4,30.12,East,90,3.1,4.9,67,0.00,,,0.00,Graphweather,2014-02-15 19:04:00,
2014-02-15 15:09:00,84.6,71.6,30.12,East,90,3.6,3.6,66,0.00,,,0.00,Graphweather,2014-02-15 19:09:00,
2014-02-15 15:14:00,85.3,73.4,30.12,ESE,112,3.6,8.1,65,0.00,,,0.00,Graphweather,2014-02-15 19:14:00,
2014-02-15 15:19:00,86.0,73.4,30.09,SSE,157,2.9,6.0,65,0.00,,,0.00,Graphweather,2014-02-15 19:19:00,
2014-02-15 15:25:00,84.9,71.6,30.09,East,90,3.8,8.1,63,0.00,,,0.00,Graphweather,2014-02-15 19:25:00,
2014-02-15 15:34:00,84.6,71.6,30.09,NE,45,2.9,6.0,65,0.00,,,0.00,Graphweather,2014-02-15 19:34:00,
2014-02-15 15:39:00,83.5,71.6,30.09,SSW,202,4.5,7.6,66,0.00,,,0.00,Graphweather,2014-02-15 19:39:00,
2014-02-15 15:49:00,82.2,71.6,30.09,East,90,2.9,5.8,68,0.00,,,0.00,Graphweather,2014-02-15 19:49:00,
2014-02-15 15:54:00,81.7,71.6,30.09,East,90,2.7,5.6,70,0.00,,,0.00,Graphweather,2014-02-15 19:54:00,
2014-02-15 16:00:00,81.1,71.6,30.09,SE,135,3.6,5.4,70,0.00,,,0.00,Graphweather,2014-02-15 20:00:00,
2014-02-15 16:09:00,80.4,71.6,30.09,SSW,202,3.4,6.5,73,0.00,,,0.00,Graphweather,2014-02-15 20:09:00,
2014-02-15 16:15:00,79.9,71.6,30.09,ESE,112,3.1,4.7,73,0.00,,,0.00,Graphweather,2014-02-15 20:15:00,
2014-02-15 17:22:00,78.1,71.6,30.09,SSE,157,1.6,3.6,81,0.00,,,0.00,Graphweather,2014-02-15 21:22:00,
2014-02-15 17:30:00,77.7,71.6,30.09,SSW,202,2.2,3.6,83,0.00,,,0.00,Graphweather,2014-02-15 21:30:00,
2014-02-15 17:39:00,76.5,71.6,30.09,North,0,1.6,5.6,86,0.00,,,0.00,Graphweather,2014-02-15 21:39:00,
2014-02-15 17:45:00,76.3,73.4,30.09,East,90,2.5,5.4,88,0.00,,,0.00,Graphweather,2014-02-15 21:45:00,
2014-02-15 17:54:00,76.1,73.4,30.09,East,90,3.1,5.6,89,0.00,,,0.00,Graphweather,2014-02-15 21:54:00,
2014-02-15 18:00:00,76.1,73.4,30.09,East,90,2.0,5.4,89,0.00,,,0.00,Graphweather,2014-02-15 22:00:00,
2014-02-15 18:08:00,75.7,73.4,30.09,ESE,112,2.0,5.6,90,0.00,,,0.00,Graphweather,2014-02-15 22:08:00,
2014-02-15 18:13:00,75.6,73.4,30.09,ESE,112,2.5,5.8,90,0.00,,,0.00,Graphweather,2014-02-15 22:13:00,
2014-02-15 18:18:00,75.4,71.6,30.09,ESE,112,2.7,6.0,90,0.00,,,0.00,Graphweather,2014-02-15 22:18:00,
2014-02-15 18:28:00,75.4,73.4,30.09,East,90,1.3,4.0,91,0.00,,,0.00,Graphweather,2014-02-15 22:28:00,
2014-02-15 21:02:00,74.7,71.6,30.15,SSE,157,2.7,7.4,90,0.00,,,0.00,Graphweather,2014-02-16 01:02:00,
2014-02-15 21:08:00,74.5,71.6,30.18,East,90,2.9,6.5,90,0.00,,,0.00,Graphweather,2014-02-16 01:08:00,
2014-02-15 21:13:00,74.5,71.6,30.18,NE,45,3.1,5.6,90,0.00,,,0.00,Graphweather,2014-02-16 01:13:00,
2014-02-15 21:18:00,74.5,71.6,30.15,ESE,112,3.4,7.4,91,0.00,,,0.00,Graphweather,2014-02-16 01:18:00,
2014-02-15 21:28:00,74.3,71.6,30.15,ESE,112,3.1,4.9,90,0.00,,,0.00,Graphweather,2014-02-16 01:28:00,
2014-02-15 21:33:00,74.3,71.6,30.15,ENE,67,2.5,4.3,91,0.00,,,0.00,Graphweather,2014-02-16 01:33:00,
2014-02-15 21:43:00,74.5,71.6,30.15,NE,45,3.1,5.8,92,0.00,,,0.00,Graphweather,2014-02-16 01:43:00,
2014-02-15 21:48:00,74.5,71.6,30.18,ESE,112,2.5,6.3,91,0.00,,,0.00,Graphweather,2014-02-16 01:48:00,
2014-02-15 21:53:00,74.5,71.6,30.18,ESE,112,3.4,6.0,91,0.00,,,0.00,Graphweather,2014-02-16 01:53:00,
2014-02-15 22:03:00,74.7,73.4,30.15,NE,45,2.9,5.4,93,0.00,,,0.00,Graphweather,2014-02-16 02:03:00,
2014-02-15 22:08:00,74.7,73.4,30.15,NW,315,3.4,7.4,93,0.00,,,0.00,Graphweather,2014-02-16 02:08:00,
2014-02-15 22:18:00,75.0,73.4,30.15,SE,135,3.1,6.3,93,0.00,,,0.00,Graphweather,2014-02-16 02:18:00,
2014-02-15 22:23:00,74.5,73.4,30.15,ESE,112,3.8,4.9,94,0.00,,,0.00,Graphweather,2014-02-16 02:23:00,
2014-02-15 22:28:00,73.9,71.6,30.15,East,90,3.1,5.6,94,0.00,,,0.00,Graphweather,2014-02-16 02:28:00,
2014-02-15 22:38:00,73.6,71.6,30.15,ESE,112,2.7,5.6,95,0.00,,,0.00,Graphweather,2014-02-16 02:38:00,
2014-02-15 22:43:00,73.6,71.6,30.15,East,90,2.2,5.6,95,0.00,,,0.00,Graphweather,2014-02-16 02:43:00,
2014-02-15 22:53:00,73.8,73.4,30.15,ESE,112,2.2,7.2,95,0.00,,,0.00,Graphweather,2014-02-16 02:53:00,
2014-02-15 22:58:00,74.1,73.4,30.15,SE,135,4.3,6.5,95,0.00,,,0.00,Graphweather,2014-02-16 02:58:00,
2014-02-15 23:03:00,73.9,73.4,30.15,SE,135,3.8,5.8,95,0.00,,,0.00,Graphweather,2014-02-16 03:03:00,
2014-02-15 23:13:00,73.9,71.6,30.15,East,90,3.8,6.3,94,0.00,,,0.00,Graphweather,2014-02-16 03:13:00,
2014-02-15 23:18:00,74.1,71.6,30.15,ESE,112,2.5,6.3,93,0.00,,,0.00,Graphweather,2014-02-16 03:18:00,
2014-02-15 23:23:00,74.1,71.6,30.15,NE,45,2.2,5.4,92,0.00,,,0.00,Graphweather,2014-02-16 03:23:00,
2014-02-15 23:33:00,74.1,71.6,30.15,ESE,112,2.5,4.3,94,0.00,,,0.00,Graphweather,2014-02-16 03:33:00,
2014-02-15 23:38:00,73.9,71.6,30.15,ENE,67,2.0,6.5,93,0.00,,,0.00,Graphweather,2014-02-16 03:38:00,
2014-02-15 23:43:00,73.9,71.6,30.15,NE,45,1.3,6.0,92,0.00,,,0.00,Graphweather,2014-02-16 03:43:00,
2014-02-15 23:53:00,73.9,71.6,30.12,ENE,67,1.6,5.4,91,0.00,,,0.00,Graphweather,2014-02-16 03:53:00,
2014-02-15 23:58:00,73.9,71.6,30.12,ESE,112,1.6,4.3,91,0.00,,,0.00,Graphweather,2014-02-16 03:58:00,